Wetterdaten: Montag, 09.05.2016
Datum Zeit Auen-Temp. Temp gefhlt Luftfeuchte Luftdruck Regen Wind Richtung Richtung Sonnenschein Taupunkt Windben
09.05.2016 00:00 9,0 C 9,0 C 75 % 1012,9 hPa 0,0 mm 0,6 km/h (0 Bft) S-SO 157 0 min 4,8 C 0,0 km/h (0 Bft)
09.05.2016 00:05 8,6 C 8,7 C 71 % 1012,9 hPa 0,0 mm 0,6 km/h (0 Bft) O-SO 112 0 min 3,6 C 0,0 km/h (0 Bft)
09.05.2016 00:10 8,6 C 8,9 C 73 % 1012,9 hPa 0,0 mm 0,6 km/h (0 Bft) S-SO 157 0 min 4,0 C 0,0 km/h (0 Bft)
09.05.2016 00:15 8,7 C 8,8 C 73 % 1012,9 hPa 0,0 mm 1,5 km/h (1 Bft) NW 315 0 min 4,1 C 0,0 km/h (0 Bft)
09.05.2016 00:20 8,1 C 8,1 C 74 % 1012,9 hPa 0,0 mm 1,2 km/h (1 Bft) O 90 0 min 3,8 C 0,0 km/h (0 Bft)
09.05.2016 00:25 8,1 C 7,9 C 77 % 1012,9 hPa 0,0 mm 0,0 km/h (0 Bft) O-NO 67 0 min 4,3 C 3,3 km/h (1 Bft)
09.05.2016 00:30 8,0 C 8,3 C 73 % 1012,9 hPa 0,0 mm 0,6 km/h (0 Bft) SO 135 0 min 3,5 C 3,9 km/h (1 Bft)
09.05.2016 00:35 8,3 C 8,5 C 74 % 1013,1 hPa 0,0 mm 2,4 km/h (1 Bft) SO 135 0 min 3,9 C 6,3 km/h (2 Bft)
09.05.2016 00:37 8,6 C 8,6 C 74 % 1013,1 hPa 0,0 mm 3,0 km/h (1 Bft) S-SO 157 0 min 4,2 C 0,0 km/h (0 Bft)
09.05.2016 00:40 8,6 C 8,6 C 74 % 1013,1 hPa 0,0 mm 3,0 km/h (1 Bft) S-SO 157 0 min 4,2 C 0,0 km/h (0 Bft)
09.05.2016 00:45 7,8 C 7,9 C 75 % 1013,1 hPa 0,0 mm 3,0 km/h (1 Bft) W 270 0 min 3,7 C 9,8 km/h (2 Bft)
09.05.2016 00:50 7,4 C 7,4 C 75 % 1013,1 hPa 0,0 mm 2,1 km/h (1 Bft) S-SO 157 0 min 3,3 C 0,0 km/h (0 Bft)
09.05.2016 00:55 7,7 C 7,7 C 74 % 1013,1 hPa 0,0 mm 1,8 km/h (1 Bft) SO 135 0 min 3,4 C 7,2 km/h (2 Bft)
09.05.2016 01:00 8,0 C 7,9 C 74 % 1013,1 hPa 0,0 mm 1,2 km/h (1 Bft) O-SO 112 0 min 3,7 C 0,0 km/h (0 Bft)
09.05.2016 01:05 7,4 C 7,5 C 74 % 1013,1 hPa 0,0 mm 1,2 km/h (1 Bft) S-SO 157 0 min 3,1 C 0,0 km/h (0 Bft)
09.05.2016 01:10 7,2 C 7,2 C 74 % 1013,1 hPa 0,0 mm 0,3 km/h (0 Bft) S-SO 157 0 min 2,9 C 0,0 km/h (0 Bft)
09.05.2016 01:15 7,3 C 7,2 C 75 % 1013,1 hPa 0,0 mm 0,6 km/h (0 Bft) NO 45 0 min 3,2 C 0,0 km/h (0 Bft)
09.05.2016 01:20 6,8 C 6,7 C 77 % 1013,1 hPa 0,0 mm 0,6 km/h (0 Bft) O-SO 112 0 min 3,1 C 0,0 km/h (0 Bft)
09.05.2016 01:25 7,2 C 7,2 C 75 % 1013,1 hPa 0,0 mm 1,2 km/h (1 Bft) SO 135 0 min 3,1 C 3,9 km/h (1 Bft)
09.05.2016 01:30 7,5 C 7,3 C 75 % 1013,1 hPa 0,0 mm 2,7 km/h (1 Bft) SO 135 0 min 3,4 C 6,3 km/h (2 Bft)
09.05.2016 01:35 7,4 C 7,3 C 74 % 1012,9 hPa 0,0 mm 3,6 km/h (1 Bft) S-SO 157 0 min 3,1 C 0,0 km/h (0 Bft)
09.05.2016 01:40 6,9 C 6,8 C 77 % 1012,9 hPa 0,0 mm 2,1 km/h (1 Bft) SW 225 0 min 3,2 C 0,0 km/h (0 Bft)
09.05.2016 01:45 6,4 C 6,4 C 77 % 1012,9 hPa 0,0 mm 0,9 km/h (0 Bft) O-NO 67 0 min 2,7 C 0,0 km/h (0 Bft)
09.05.2016 01:50 6,4 C 6,4 C 74 % 1012,9 hPa 0,0 mm 0,9 km/h (0 Bft) S-SO 157 0 min 2,1 C 0,0 km/h (0 Bft)
09.05.2016 01:55 6,5 C 6,6 C 75 % 1012,8 hPa 0,0 mm 1,2 km/h (1 Bft) S-SW 202 0 min 2,4 C 4,5 km/h (1 Bft)
09.05.2016 02:00 6,5 C 6,5 C 75 % 1012,8 hPa 0,0 mm 2,1 km/h (1 Bft) S 180 0 min 2,4 C 4,2 km/h (1 Bft)
09.05.2016 02:05 6,3 C 6,3 C 75 % 1012,8 hPa 0,0 mm 1,5 km/h (1 Bft) O 90 0 min 2,2 C 0,0 km/h (0 Bft)
09.05.2016 02:10 6,0 C 5,9 C 77 % 1012,8 hPa 0,0 mm 0,6 km/h (0 Bft) NO 45 0 min 2,3 C 0,0 km/h (0 Bft)
09.05.2016 02:15 6,1 C 5,9 C 78 % 1012,9 hPa 0,0 mm 1,2 km/h (1 Bft) S 180 0 min 2,6 C 3,3 km/h (1 Bft)
09.05.2016 02:20 6,1 C 6,0 C 75 % 1012,9 hPa 0,0 mm 2,1 km/h (1 Bft) SW 225 0 min 2,0 C 7,5 km/h (2 Bft)
09.05.2016 02:25 5,9 C 5,9 C 76 % 1012,9 hPa 0,0 mm 1,2 km/h (1 Bft) O-NO 67 0 min 2,0 C 0,0 km/h (0 Bft)
09.05.2016 02:30 5,8 C 5,9 C 76 % 1012,9 hPa 0,0 mm 0,6 km/h (0 Bft) N-NO 22 0 min 1,9 C 0,0 km/h (0 Bft)
09.05.2016 02:35 5,6 C 5,4 C 79 % 1012,4 hPa 0,0 mm 0,0 km/h (0 Bft) NW 315 0 min 2,3 C 0,0 km/h (0 Bft)
09.05.2016 02:40 5,2 C 5,0 C 78 % 1012,4 hPa 0,0 mm 0,0 km/h (0 Bft) NW 315 0 min 1,7 C 0,0 km/h (0 Bft)
09.05.2016 02:45 5,4 C 5,0 C 79 % 1012,4 hPa 0,0 mm 0,0 km/h (0 Bft) S-SW 202 0 min 2,1 C 0,0 km/h (0 Bft)
09.05.2016 02:50 5,5 C 5,1 C 79 % 1012,4 hPa 0,0 mm 0,0 km/h (0 Bft) N-NO 22 0 min 2,2 C 0,0 km/h (0 Bft)
09.05.2016 02:55 5,6 C 5,3 C 76 % 1012,4 hPa 0,0 mm 0,0 km/h (0 Bft) W 270 0 min 1,7 C 0,0 km/h (0 Bft)
09.05.2016 03:00 5,7 C 5,3 C 76 % 1012,4 hPa 0,0 mm 0,0 km/h (0 Bft) O 90 0 min 1,8 C 0,0 km/h (0 Bft)
09.05.2016 03:05 5,6 C 5,4 C 76 % 1012,4 hPa 0,0 mm 0,0 km/h (0 Bft) NW 315 0 min 1,7 C 0,0 km/h (0 Bft)
09.05.2016 03:10 5,2 C 5,0 C 76 % 1012,4 hPa 0,0 mm 0,3 km/h (0 Bft) O-NO 67 0 min 1,3 C 0,0 km/h (0 Bft)
09.05.2016 03:15 5,2 C 5,1 C 76 % 1012,3 hPa 0,0 mm 0,0 km/h (0 Bft) W-NW 292 0 min 1,3 C 0,0 km/h (0 Bft)
09.05.2016 03:20 5,2 C 5,1 C 76 % 1012,3 hPa 0,0 mm 0,0 km/h (0 Bft) O 90 0 min 1,3 C 0,0 km/h (0 Bft)
09.05.2016 03:25 5,2 C 5,1 C 76 % 1012,3 hPa 0,0 mm 0,0 km/h (0 Bft) W-NW 292 0 min 1,3 C 0,0 km/h (0 Bft)
09.05.2016 03:30 5,2 C 5,0 C 79 % 1012,3 hPa 0,0 mm 0,0 km/h (0 Bft) O-NO 67 0 min 1,9 C 0,0 km/h (0 Bft)
09.05.2016 03:35 5,1 C 5,0 C 76 % 1012,3 hPa 0,0 mm 0,0 km/h (0 Bft) NO 45 0 min 1,2 C 0,0 km/h (0 Bft)
09.05.2016 03:37 5,2 C 5,1 C 80 % 1012,3 hPa 0,0 mm 0,0 km/h (0 Bft) O-NO 67 0 min 2,0 C 0,0 km/h (0 Bft)
09.05.2016 03:41 5,2 C 5,1 C 80 % 1012,3 hPa 0,0 mm 0,0 km/h (0 Bft) O-NO 67 0 min 2,0 C 0,0 km/h (0 Bft)
09.05.2016 03:45 5,5 C 5,4 C 77 % 1012,3 hPa 0,0 mm 0,3 km/h (0 Bft) N 360 0 min 1,8 C 0,0 km/h (0 Bft)
09.05.2016 03:50 5,5 C 5,5 C 77 % 1012,3 hPa 0,0 mm 0,9 km/h (0 Bft) W 270 0 min 1,8 C 0,0 km/h (0 Bft)
09.05.2016 03:55 5,7 C 5,6 C 78 % 1012,4 hPa 0,0 mm 0,6 km/h (0 Bft) O-NO 67 0 min 2,2 C 0,0 km/h (0 Bft)
09.05.2016 04:00 6,0 C 5,9 C 77 % 1012,4 hPa 0,0 mm 0,0 km/h (0 Bft) O-NO 67 0 min 2,3 C 0,0 km/h (0 Bft)
09.05.2016 04:05 6,0 C 5,9 C 80 % 1012,4 hPa 0,0 mm 0,0 km/h (0 Bft) NO 45 0 min 2,8 C 0,0 km/h (0 Bft)
09.05.2016 04:10 6,0 C 5,9 C 80 % 1012,4 hPa 0,0 mm 0,0 km/h (0 Bft) W-NW 292 0 min 2,8 C 0,0 km/h (0 Bft)
09.05.2016 04:15 6,1 C 5,9 C 80 % 1012,3 hPa 0,0 mm 0,0 km/h (0 Bft) NW 315 0 min 2,9 C 0,0 km/h (0 Bft)
09.05.2016 04:20 6,1 C 5,9 C 80 % 1012,3 hPa 0,0 mm 0,0 km/h (0 Bft) NO 45 0 min 2,9 C 0,0 km/h (0 Bft)
09.05.2016 04:25 5,9 C 5,8 C 81 % 1012,3 hPa 0,0 mm 0,0 km/h (0 Bft) NO 45 0 min 2,9 C 0,0 km/h (0 Bft)
09.05.2016 04:30 5,9 C 5,8 C 80 % 1012,3 hPa 0,0 mm 0,0 km/h (0 Bft) NO 45 0 min 2,7 C 0,0 km/h (0 Bft)
09.05.2016 04:35 5,7 C 5,6 C 80 % 1012,3 hPa 0,0 mm 0,0 km/h (0 Bft) O 90 0 min 2,5 C 0,0 km/h (0 Bft)
09.05.2016 04:40 6,0 C 5,8 C 80 % 1012,3 hPa 0,0 mm 0,3 km/h (0 Bft) SO 135 0 min 2,8 C 3,6 km/h (1 Bft)
09.05.2016 04:45 6,4 C 6,1 C 80 % 1012,3 hPa 0,0 mm 0,3 km/h (0 Bft) O 90 0 min 3,2 C 0,0 km/h (0 Bft)
09.05.2016 04:50 6,4 C 6,2 C 80 % 1012,3 hPa 0,0 mm 0,3 km/h (0 Bft) NW 315 0 min 3,2 C 0,0 km/h (0 Bft)
09.05.2016 04:55 6,0 C 5,8 C 79 % 1012,4 hPa 0,0 mm 0,0 km/h (0 Bft) O 90 0 min 2,6 C 0,0 km/h (0 Bft)
09.05.2016 05:00 5,9 C 5,7 C 80 % 1012,4 hPa 0,0 mm 0,0 km/h (0 Bft) N-NO 22 0 min 2,7 C 0,0 km/h (0 Bft)
09.05.2016 05:05 5,9 C 5,7 C 80 % 1012,4 hPa 0,0 mm 0,0 km/h (0 Bft) O-SO 112 0 min 2,7 C 0,0 km/h (0 Bft)
09.05.2016 05:10 6,0 C 5,8 C 80 % 1012,4 hPa 0,0 mm 0,0 km/h (0 Bft) W 270 0 min 2,8 C 0,0 km/h (0 Bft)
09.05.2016 05:15 5,6 C 5,5 C 79 % 1012,3 hPa 0,0 mm 0,0 km/h (0 Bft) N-NW 337 0 min 2,3 C 0,0 km/h (0 Bft)
09.05.2016 05:20 5,6 C 5,4 C 79 % 1012,3 hPa 0,0 mm 0,0 km/h (0 Bft) O-NO 67 0 min 2,3 C 0,0 km/h (0 Bft)
09.05.2016 05:25 5,5 C 5,3 C 79 % 1012,3 hPa 0,0 mm 0,0 km/h (0 Bft) N-NO 22 0 min 2,2 C 0,0 km/h (0 Bft)
09.05.2016 05:30 5,4 C 5,3 C 79 % 1012,3 hPa 0,0 mm 0,0 km/h (0 Bft) NO 45 0 min 2,1 C 0,0 km/h (0 Bft)
09.05.2016 05:35 5,5 C 5,4 C 80 % 1012,2 hPa 0,0 mm 0,0 km/h (0 Bft) N-NO 22 0 min 2,3 C 0,0 km/h (0 Bft)
09.05.2016 05:40 5,5 C 5,4 C 80 % 1012,2 hPa 0,0 mm 0,0 km/h (0 Bft) NO 45 0 min 2,3 C 0,0 km/h (0 Bft)
09.05.2016 05:45 5,8 C 5,8 C 77 % 1012,2 hPa 0,0 mm 0,0 km/h (0 Bft) O-NO 67 0 min 2,1 C 0,0 km/h (0 Bft)
09.05.2016 05:50 5,9 C 5,8 C 82 % 1012,2 hPa 0,0 mm 0,0 km/h (0 Bft) N-NO 22 0 min 3,1 C 0,0 km/h (0 Bft)
09.05.2016 05:55 5,9 C 5,9 C 82 % 1012,1 hPa 0,0 mm 0,0 km/h (0 Bft) W-NW 292 0 min 3,1 C 0,0 km/h (0 Bft)
09.05.2016 06:00 5,8 C 5,8 C 81 % 1012,1 hPa 0,0 mm 0,0 km/h (0 Bft) NO 45 0 min 2,8 C 0,0 km/h (0 Bft)
09.05.2016 06:05 5,9 C 5,9 C 81 % 1012,1 hPa 0,0 mm 0,0 km/h (0 Bft) W-SW 247 0 min 2,9 C 0,0 km/h (0 Bft)
09.05.2016 06:10 6,2 C 6,4 C 77 % 1012,1 hPa 0,0 mm 0,0 km/h (0 Bft) N-NO 22 0 min 2,5 C 0,0 km/h (0 Bft)
09.05.2016 06:15 6,4 C 7,7 C 77 % 1012,3 hPa 0,0 mm 0,0 km/h (0 Bft) S-SO 157 0 min 2,7 C 0,0 km/h (0 Bft)
09.05.2016 06:20 6,5 C 7,9 C 77 % 1012,3 hPa 0,0 mm 0,0 km/h (0 Bft) O 90 0 min 2,8 C 0,0 km/h (0 Bft)
09.05.2016 06:25 6,6 C 7,9 C 77 % 1012,3 hPa 0,0 mm 0,0 km/h (0 Bft) N-NO 22 0 min 2,9 C 0,0 km/h (0 Bft)
09.05.2016 06:30 6,7 C 8,9 C 77 % 1012,3 hPa 0,0 mm 0,0 km/h (0 Bft) S-SO 157 0 min 3,0 C 0,0 km/h (0 Bft)
09.05.2016 06:35 7,3 C 11,1 C 77 % 1012,3 hPa 0,0 mm 0,3 km/h (0 Bft) W-NW 292 5 min 3,5 C 0,0 km/h (0 Bft)
09.05.2016 06:40 7,7 C 12,4 C 77 % 1012,3 hPa 0,0 mm 0,3 km/h (0 Bft) NO 45 5 min 3,9 C 0,0 km/h (0 Bft)
09.05.2016 06:42 7,7 C 12,4 C 77 % 1012,3 hPa 0,0 mm 0,3 km/h (0 Bft) NO 45 2 min 3,9 C 0,0 km/h (0 Bft)
09.05.2016 06:45 8,5 C 14,2 C 76 % 1012,3 hPa 0,0 mm 0,3 km/h (0 Bft) O 90 3 min 4,5 C 0,0 km/h (0 Bft)
09.05.2016 06:50 8,9 C 15,0 C 76 % 1012,3 hPa 0,0 mm 0,0 km/h (0 Bft) O-NO 67 5 min 4,9 C 0,0 km/h (0 Bft)
09.05.2016 06:55 9,3 C 15,9 C 74 % 1012,4 hPa 0,0 mm 1,5 km/h (1 Bft) N 360 5 min 4,9 C 3,0 km/h (1 Bft)
09.05.2016 07:00 9,7 C 16,4 C 74 % 1012,4 hPa 0,0 mm 1,5 km/h (1 Bft) O 90 5 min 5,3 C 0,0 km/h (0 Bft)
09.05.2016 07:05 10,5 C 17,7 C 72 % 1012,4 hPa 0,0 mm 0,3 km/h (0 Bft) SO 135 5 min 5,7 C 0,0 km/h (0 Bft)
09.05.2016 07:10 11,1 C 19,0 C 71 % 1012,4 hPa 0,0 mm 0,0 km/h (0 Bft) O-NO 67 5 min 6,0 C 0,0 km/h (0 Bft)
09.05.2016 07:15 12,0 C 20,3 C 68 % 1012,6 hPa 0,0 mm 0,6 km/h (0 Bft) O-SO 112 5 min 6,3 C 0,0 km/h (0 Bft)
09.05.2016 07:20 12,2 C 20,7 C 68 % 1012,6 hPa 0,0 mm 1,8 km/h (1 Bft) NW 315 5 min 6,5 C 4,8 km/h (1 Bft)
09.05.2016 07:25 11,4 C 20,8 C 69 % 1012,6 hPa 0,0 mm 1,2 km/h (1 Bft) NO 45 5 min 5,9 C 0,0 km/h (0 Bft)
09.05.2016 07:30 11,3 C 21,3 C 69 % 1012,6 hPa 0,0 mm 0,6 km/h (0 Bft) N-NW 337 5 min 5,8 C 0,0 km/h (0 Bft)
09.05.2016 07:35 12,0 C 21,3 C 69 % 1010,9 hPa 0,0 mm 0,0 km/h (0 Bft) O-NO 67 5 min 6,5 C 0,0 km/h (0 Bft)
09.05.2016 07:40 12,4 C 21,3 C 69 % 1010,9 hPa 0,0 mm 0,0 km/h (0 Bft) O-SO 112 5 min 6,9 C 0,0 km/h (0 Bft)
09.05.2016 07:45 13,3 C 21,9 C 68 % 1010,9 hPa 0,0 mm 0,0 km/h (0 Bft) N-NO 22 5 min 7,5 C 0,0 km/h (0 Bft)
09.05.2016 07:50 13,6 C 22,6 C 68 % 1010,9 hPa 0,0 mm 0,0 km/h (0 Bft) O-NO 67 5 min 7,8 C 0,0 km/h (0 Bft)
09.05.2016 07:55 14,0 C 21,6 C 66 % 1013,1 hPa 0,0 mm 0,0 km/h (0 Bft) N 360 5 min 7,7 C 0,0 km/h (0 Bft)
09.05.2016 08:00 14,7 C 22,5 C 66 % 1013,1 hPa 0,0 mm 0,0 km/h (0 Bft) NO 45 5 min 8,4 C 0,0 km/h (0 Bft)
09.05.2016 08:05 15,0 C 22,0 C 65 % 1013,1 hPa 0,0 mm 0,0 km/h (0 Bft) NO 45 5 min 8,5 C 0,0 km/h (0 Bft)
09.05.2016 08:10 14,3 C 20,7 C 65 % 1013,1 hPa 0,0 mm 0,0 km/h (0 Bft) O-NO 67 5 min 7,8 C 0,0 km/h (0 Bft)
09.05.2016 08:15 14,1 C 19,0 C 64 % 1013,4 hPa 0,0 mm 0,0 km/h (0 Bft) NO 45 5 min 7,4 C 0,0 km/h (0 Bft)
09.05.2016 08:20 14,3 C 19,2 C 64 % 1013,4 hPa 0,0 mm 0,0 km/h (0 Bft) O-NO 67 5 min 7,6 C 0,0 km/h (0 Bft)
09.05.2016 08:25 14,5 C 19,3 C 63 % 1013,4 hPa 0,0 mm 0,0 km/h (0 Bft) N-NO 22 5 min 7,5 C 0,0 km/h (0 Bft)
09.05.2016 08:30 14,9 C 19,6 C 64 % 1013,4 hPa 0,0 mm 0,0 km/h (0 Bft) N-NW 337 5 min 8,2 C 0,0 km/h (0 Bft)
09.05.2016 08:35 15,9 C 21,0 C 63 % 1013,4 hPa 0,0 mm 0,3 km/h (0 Bft) N-NO 22 5 min 8,9 C 0,0 km/h (0 Bft)
09.05.2016 08:40 16,8 C 23,0 C 60 % 1013,4 hPa 0,0 mm 0,3 km/h (0 Bft) O-NO 67 5 min 9,0 C 0,0 km/h (0 Bft)
09.05.2016 08:45 17,1 C 24,1 C 59 % 1013,4 hPa 0,0 mm 0,6 km/h (0 Bft) W 270 5 min 9,0 C 0,0 km/h (0 Bft)
09.05.2016 08:50 17,5 C 25,5 C 59 % 1013,4 hPa 0,0 mm 0,6 km/h (0 Bft) O-NO 67 5 min 9,4 C 0,0 km/h (0 Bft)
09.05.2016 08:55 18,5 C 26,4 C 58 % 1013,3 hPa 0,0 mm 0,0 km/h (0 Bft) NW 315 5 min 10,1 C 3,3 km/h (1 Bft)
09.05.2016 09:00 18,7 C 26,4 C 57 % 1013,3 hPa 0,0 mm 0,9 km/h (0 Bft) N 360 5 min 10,0 C 3,9 km/h (1 Bft)
09.05.2016 09:05 18,7 C 26,1 C 56 % 1013,3 hPa 0,0 mm 2,4 km/h (1 Bft) N 360 5 min 9,7 C 5,1 km/h (1 Bft)
09.05.2016 09:10 18,7 C 26,0 C 55 % 1013,3 hPa 0,0 mm 1,8 km/h (1 Bft) O-NO 67 5 min 9,5 C 0,0 km/h (0 Bft)
09.05.2016 09:15 18,9 C 25,6 C 54 % 1013,4 hPa 0,0 mm 1,5 km/h (1 Bft) O-SO 112 5 min 9,4 C 0,0 km/h (0 Bft)
09.05.2016 09:20 18,6 C 25,3 C 51 % 1013,4 hPa 0,0 mm 1,2 km/h (1 Bft) SO 135 5 min 8,3 C 0,0 km/h (0 Bft)
09.05.2016 09:25 18,8 C 24,9 C 53 % 1013,4 hPa 0,0 mm 0,6 km/h (0 Bft) O-NO 67 5 min 9,0 C 3,3 km/h (1 Bft)
09.05.2016 09:30 19,4 C 25,2 C 52 % 1013,4 hPa 0,0 mm 1,2 km/h (1 Bft) N-NO 22 5 min 9,3 C 4,2 km/h (1 Bft)
09.05.2016 09:35 19,8 C 25,6 C 50 % 1013,8 hPa 0,0 mm 3,3 km/h (1 Bft) O-NO 67 5 min 9,1 C 10,1 km/h (2 Bft)
09.05.2016 09:40 20,1 C 26,1 C 49 % 1013,8 hPa 0,0 mm 4,2 km/h (1 Bft) O-NO 67 5 min 9,0 C 3,6 km/h (1 Bft)
09.05.2016 09:42 20,0 C 26,1 C 47 % 1013,8 hPa 0,0 mm 5,1 km/h (1 Bft) NO 45 2 min 8,3 C 7,7 km/h (2 Bft)
09.05.2016 09:43 20,0 C 26,1 C 47 % 1013,8 hPa 0,0 mm 5,1 km/h (1 Bft) NO 45 1 min 8,3 C 7,7 km/h (2 Bft)
09.05.2016 09:45 20,0 C 26,1 C 47 % 1013,8 hPa 0,0 mm 5,1 km/h (1 Bft) NO 45 2 min 8,3 C 10,4 km/h (2 Bft)
09.05.2016 09:50 20,1 C 26,7 C 48 % 1013,8 hPa 0,0 mm 5,1 km/h (1 Bft) N-NW 337 5 min 8,7 C 7,7 km/h (2 Bft)
09.05.2016 09:55 20,4 C 26,9 C 46 % 1014,1 hPa 0,0 mm 5,4 km/h (1 Bft) S 180 5 min 8,4 C 11,6 km/h (2 Bft)
09.05.2016 10:00 20,4 C 26,5 C 46 % 1014,1 hPa 0,0 mm 7,5 km/h (2 Bft) O-NO 67 5 min 8,4 C 8,9 km/h (2 Bft)
09.05.2016 10:05 20,8 C 26,7 C 46 % 1014,1 hPa 0,0 mm 6,6 km/h (2 Bft) NO 45 5 min 8,8 C 7,7 km/h (2 Bft)
09.05.2016 10:10 21,1 C 27,0 C 45 % 1014,1 hPa 0,0 mm 6,0 km/h (2 Bft) N-NO 22 5 min 8,7 C 10,7 km/h (2 Bft)
09.05.2016 10:15 21,1 C 27,0 C 45 % 1012,5 hPa 0,0 mm 6,0 km/h (2 Bft) NW 315 5 min 8,7 C 12,8 km/h (3 Bft)
09.05.2016 10:20 21,5 C 27,3 C 46 % 1012,5 hPa 0,0 mm 6,0 km/h (2 Bft) NO 45 5 min 9,4 C 7,7 km/h (2 Bft)
09.05.2016 10:25 21,4 C 26,9 C 44 % 1012,5 hPa 0,0 mm 7,2 km/h (2 Bft) N-NO 22 5 min 8,6 C 16,4 km/h (3 Bft)
09.05.2016 10:30 21,2 C 26,4 C 44 % 1012,5 hPa 0,0 mm 8,9 km/h (2 Bft) N-NW 337 5 min 8,5 C 15,2 km/h (3 Bft)
09.05.2016 10:35 21,2 C 26,0 C 43 % 1014,6 hPa 0,0 mm 9,2 km/h (2 Bft) NO 45 5 min 8,1 C 9,5 km/h (2 Bft)
09.05.2016 10:40 21,2 C 26,1 C 44 % 1014,6 hPa 0,0 mm 9,2 km/h (2 Bft) N-NO 22 5 min 8,5 C 14,6 km/h (3 Bft)
09.05.2016 10:45 21,2 C 26,0 C 43 % 1014,6 hPa 0,0 mm 8,9 km/h (2 Bft) W-SW 247 5 min 8,1 C 5,7 km/h (1 Bft)
09.05.2016 10:50 21,3 C 25,7 C 44 % 1014,6 hPa 0,0 mm 8,9 km/h (2 Bft) NW 315 5 min 8,5 C 7,7 km/h (2 Bft)
09.05.2016 10:55 21,4 C 25,9 C 43 % 1014,7 hPa 0,0 mm 6,6 km/h (2 Bft) N-NO 22 5 min 8,3 C 5,4 km/h (1 Bft)
09.05.2016 11:00 21,6 C 26,2 C 41 % 1014,7 hPa 0,0 mm 5,4 km/h (1 Bft) N 360 5 min 7,8 C 5,1 km/h (1 Bft)
09.05.2016 11:05 22,2 C 27,9 C 41 % 1014,7 hPa 0,0 mm 3,3 km/h (1 Bft) O-NO 67 5 min 8,3 C 3,3 km/h (1 Bft)
09.05.2016 11:10 22,2 C 28,1 C 41 % 1014,7 hPa 0,0 mm 4,2 km/h (1 Bft) S-SO 157 5 min 8,3 C 7,2 km/h (2 Bft)
09.05.2016 11:15 22,1 C 28,5 C 38 % 1014,9 hPa 0,0 mm 5,1 km/h (1 Bft) O-SO 112 5 min 7,1 C 6,0 km/h (2 Bft)
09.05.2016 11:20 22,0 C 28,5 C 38 % 1014,9 hPa 0,0 mm 6,3 km/h (2 Bft) N-NO 22 5 min 7,0 C 15,8 km/h (3 Bft)
09.05.2016 11:25 21,7 C 27,8 C 39 % 1014,9 hPa 0,0 mm 8,9 km/h (2 Bft) NO 45 5 min 7,1 C 23,8 km/h (4 Bft)
09.05.2016 11:30 21,6 C 27,3 C 41 % 1014,9 hPa 0,0 mm 10,1 km/h (2 Bft) NW 315 5 min 7,8 C 9,5 km/h (2 Bft)
09.05.2016 11:35 21,6 C 27,0 C 41 % 1014,8 hPa 0,0 mm 9,8 km/h (2 Bft) N-NO 22 5 min 7,8 C 8,0 km/h (2 Bft)
09.05.2016 11:40 21,4 C 26,5 C 39 % 1014,8 hPa 0,0 mm 11,0 km/h (2 Bft) N-NO 22 5 min 6,9 C 16,7 km/h (3 Bft)
09.05.2016 11:45 21,6 C 26,1 C 40 % 1014,8 hPa 0,0 mm 10,7 km/h (2 Bft) O-NO 67 5 min 7,4 C 16,7 km/h (3 Bft)
09.05.2016 11:50 21,4 C 25,9 C 39 % 1014,8 hPa 0,0 mm 9,8 km/h (2 Bft) N-NW 337 5 min 6,9 C 7,7 km/h (2 Bft)
09.05.2016 11:55 21,1 C 25,7 C 39 % 1014,9 hPa 0,0 mm 9,5 km/h (2 Bft) O-NO 67 5 min 6,6 C 11,3 km/h (2 Bft)
09.05.2016 12:00 20,8 C 24,8 C 40 % 1014,9 hPa 0,0 mm 9,5 km/h (2 Bft) O-NO 67 5 min 6,7 C 13,4 km/h (3 Bft)
09.05.2016 12:05 20,8 C 24,4 C 40 % 1014,9 hPa 0,0 mm 9,5 km/h (2 Bft) O-NO 67 0 min 6,7 C 10,4 km/h (2 Bft)
09.05.2016 12:10 20,7 C 24,6 C 39 % 1014,9 hPa 0,0 mm 9,5 km/h (2 Bft) O-SO 112 5 min 6,2 C 7,5 km/h (2 Bft)
09.05.2016 12:15 20,4 C 23,3 C 40 % 1014,8 hPa 0,0 mm 10,4 km/h (2 Bft) NO 45 0 min 6,3 C 9,8 km/h (2 Bft)
09.05.2016 12:20 20,4 C 23,3 C 40 % 1014,8 hPa 0,0 mm 11,3 km/h (2 Bft) W 270 5 min 6,3 C 16,7 km/h (3 Bft)
09.05.2016 12:25 20,3 C 22,5 C 41 % 1014,8 hPa 0,0 mm 11,0 km/h (2 Bft) N 360 0 min 6,6 C 18,2 km/h (3 Bft)
09.05.2016 12:30 20,7 C 23,2 C 40 % 1014,8 hPa 0,0 mm 10,7 km/h (2 Bft) W-NW 292 0 min 6,6 C 8,3 km/h (2 Bft)
09.05.2016 12:35 21,0 C 24,2 C 39 % 1014,7 hPa 0,0 mm 9,5 km/h (2 Bft) N-NW 337 0 min 6,5 C 12,2 km/h (2 Bft)
09.05.2016 12:40 21,2 C 24,8 C 39 % 1014,7 hPa 0,0 mm 9,5 km/h (2 Bft) N-NO 22 5 min 6,7 C 23,2 km/h (4 Bft)
09.05.2016 12:42 20,9 C 24,0 C 39 % 1014,7 hPa 0,0 mm 11,6 km/h (2 Bft) N-NO 22 0 min 6,4 C 16,7 km/h (3 Bft)
09.05.2016 12:44 20,9 C 24,0 C 39 % 1014,7 hPa 0,0 mm 11,6 km/h (2 Bft) N-NO 22 0 min 6,4 C 16,7 km/h (3 Bft)
09.05.2016 12:45 20,9 C 24,0 C 39 % 1014,7 hPa 0,0 mm 11,6 km/h (2 Bft) N-NO 22 0 min 6,4 C 16,7 km/h (3 Bft)
09.05.2016 12:50 20,9 C 24,0 C 39 % 1014,7 hPa 0,0 mm 11,9 km/h (2 Bft) O-NO 67 0 min 6,4 C 25,9 km/h (4 Bft)
09.05.2016 12:55 20,8 C 23,8 C 40 % 1014,6 hPa 0,0 mm 10,7 km/h (2 Bft) N-NO 22 0 min 6,7 C 5,7 km/h (1 Bft)
09.05.2016 13:00 20,7 C 23,3 C 39 % 1014,6 hPa 0,0 mm 11,6 km/h (2 Bft) O-NO 67 0 min 6,2 C 7,7 km/h (2 Bft)
09.05.2016 13:05 20,8 C 23,1 C 40 % 1014,6 hPa 0,0 mm 9,5 km/h (2 Bft) W-NW 292 0 min 6,7 C 9,8 km/h (2 Bft)
09.05.2016 13:10 21,1 C 23,7 C 39 % 1014,6 hPa 0,0 mm 8,9 km/h (2 Bft) N-NO 22 0 min 6,6 C 15,8 km/h (3 Bft)
09.05.2016 13:15 21,4 C 24,1 C 39 % 1014,2 hPa 0,0 mm 11,0 km/h (2 Bft) N-NW 337 0 min 6,9 C 19,1 km/h (3 Bft)
09.05.2016 13:20 21,5 C 24,3 C 39 % 1014,2 hPa 0,0 mm 9,8 km/h (2 Bft) NW 315 0 min 7,0 C 0,0 km/h (0 Bft)
09.05.2016 13:25 21,6 C 25,1 C 39 % 1014,2 hPa 0,0 mm 8,3 km/h (2 Bft) NO 45 0 min 7,0 C 11,0 km/h (2 Bft)
09.05.2016 13:30 21,5 C 25,1 C 38 % 1014,2 hPa 0,0 mm 11,3 km/h (2 Bft) NO 45 0 min 6,6 C 20,9 km/h (4 Bft)
09.05.2016 13:35 21,5 C 25,4 C 38 % 1014,4 hPa 0,0 mm 12,2 km/h (2 Bft) NO 45 0 min 6,6 C 6,0 km/h (2 Bft)
09.05.2016 13:40 21,7 C 26,1 C 39 % 1014,4 hPa 0,0 mm 8,6 km/h (2 Bft) O-NO 67 5 min 7,1 C 5,1 km/h (1 Bft)
09.05.2016 13:45 21,6 C 25,6 C 39 % 1014,4 hPa 0,0 mm 4,8 km/h (1 Bft) O-SO 112 5 min 7,0 C 0,0 km/h (0 Bft)
09.05.2016 13:50 21,4 C 25,4 C 38 % 1014,4 hPa 0,0 mm 5,7 km/h (1 Bft) NW 315 5 min 6,5 C 8,0 km/h (2 Bft)
09.05.2016 13:55 21,3 C 24,7 C 39 % 1014,4 hPa 0,0 mm 6,6 km/h (2 Bft) W-NW 292 5 min 6,8 C 6,9 km/h (2 Bft)
09.05.2016 14:00 21,3 C 24,4 C 39 % 1014,4 hPa 0,0 mm 6,6 km/h (2 Bft) NW 315 0 min 6,8 C 7,7 km/h (2 Bft)
09.05.2016 14:05 21,2 C 23,9 C 38 % 1014,4 hPa 0,0 mm 8,9 km/h (2 Bft) N-NO 22 0 min 6,3 C 15,5 km/h (3 Bft)
09.05.2016 14:10 21,2 C 23,9 C 37 % 1014,4 hPa 0,0 mm 11,6 km/h (2 Bft) NO 45 0 min 5,9 C 9,8 km/h (2 Bft)
09.05.2016 14:15 21,5 C 24,8 C 37 % 1014,5 hPa 0,0 mm 8,9 km/h (2 Bft) N-NW 337 0 min 6,2 C 11,0 km/h (2 Bft)
09.05.2016 14:20 21,5 C 24,9 C 37 % 1014,5 hPa 0,0 mm 7,7 km/h (2 Bft) O-SO 112 5 min 6,2 C 12,8 km/h (3 Bft)
09.05.2016 14:25 21,4 C 24,3 C 38 % 1014,5 hPa 0,0 mm 9,2 km/h (2 Bft) N-NO 22 5 min 6,5 C 16,4 km/h (3 Bft)
09.05.2016 14:30 21,2 C 23,7 C 37 % 1014,5 hPa 0,0 mm 9,8 km/h (2 Bft) NO 45 0 min 5,9 C 14,0 km/h (3 Bft)
09.05.2016 14:35 20,9 C 23,2 C 39 % 1014,2 hPa 0,0 mm 11,0 km/h (2 Bft) NO 45 0 min 6,4 C 12,2 km/h (2 Bft)
09.05.2016 14:40 20,8 C 23,1 C 39 % 1014,2 hPa 0,0 mm 9,8 km/h (2 Bft) N-NW 337 0 min 6,3 C 6,9 km/h (2 Bft)
09.05.2016 14:45 20,9 C 23,6 C 38 % 1014,2 hPa 0,0 mm 7,2 km/h (2 Bft) NO 45 0 min 6,0 C 8,3 km/h (2 Bft)
09.05.2016 14:50 21,0 C 23,7 C 38 % 1014,2 hPa 0,0 mm 6,6 km/h (2 Bft) N-NO 22 0 min 6,1 C 6,6 km/h (2 Bft)
09.05.2016 14:55 21,2 C 24,0 C 38 % 1014,4 hPa 0,0 mm 9,5 km/h (2 Bft) O-NO 67 0 min 6,3 C 14,6 km/h (3 Bft)
09.05.2016 15:00 21,1 C 23,9 C 38 % 1014,4 hPa 0,0 mm 10,7 km/h (2 Bft) NW 315 5 min 6,2 C 17,6 km/h (3 Bft)
09.05.2016 15:05 21,0 C 23,4 C 38 % 1014,4 hPa 0,0 mm 11,9 km/h (2 Bft) NO 45 0 min 6,1 C 13,1 km/h (3 Bft)
09.05.2016 15:10 21,0 C 23,2 C 38 % 1014,4 hPa 0,0 mm 11,3 km/h (2 Bft) W 270 0 min 6,1 C 11,3 km/h (2 Bft)
09.05.2016 15:15 20,9 C 22,9 C 39 % 1014,5 hPa 0,0 mm 8,6 km/h (2 Bft) O-NO 67 0 min 6,4 C 6,9 km/h (2 Bft)
09.05.2016 15:20 20,8 C 22,6 C 39 % 1014,5 hPa 0,0 mm 10,1 km/h (2 Bft) SO 135 0 min 6,3 C 17,0 km/h (3 Bft)
09.05.2016 15:25 20,7 C 22,2 C 39 % 1014,5 hPa 0,0 mm 12,5 km/h (3 Bft) N-NW 337 0 min 6,2 C 18,8 km/h (3 Bft)
09.05.2016 15:30 20,7 C 22,2 C 39 % 1014,5 hPa 0,0 mm 12,2 km/h (2 Bft) O-SO 112 0 min 6,2 C 11,3 km/h (2 Bft)
09.05.2016 15:35 20,8 C 22,4 C 40 % 1013,9 hPa 0,0 mm 9,2 km/h (2 Bft) O-NO 67 0 min 6,7 C 10,4 km/h (2 Bft)
09.05.2016 15:40 20,8 C 22,6 C 40 % 1013,9 hPa 0,0 mm 8,3 km/h (2 Bft) O-NO 67 0 min 6,7 C 10,1 km/h (2 Bft)
09.05.2016 15:42 20,9 C 23,1 C 39 % 1013,9 hPa 0,0 mm 11,0 km/h (2 Bft) O-NO 67 0 min 6,4 C 17,0 km/h (3 Bft)
09.05.2016 15:45 20,9 C 23,1 C 39 % 1013,9 hPa 0,0 mm 11,0 km/h (2 Bft) O-NO 67 0 min 6,4 C 17,0 km/h (3 Bft)
09.05.2016 15:50 21,0 C 23,5 C 39 % 1013,9 hPa 0,0 mm 10,4 km/h (2 Bft) NO 45 0 min 6,5 C 10,7 km/h (2 Bft)
09.05.2016 15:55 21,2 C 23,9 C 39 % 1014,3 hPa 0,0 mm 9,2 km/h (2 Bft) O-NO 67 0 min 6,7 C 8,0 km/h (2 Bft)
09.05.2016 16:00 21,3 C 24,4 C 39 % 1014,3 hPa 0,0 mm 8,6 km/h (2 Bft) NO 45 0 min 6,8 C 9,8 km/h (2 Bft)
09.05.2016 16:05 21,6 C 25,2 C 38 % 1014,3 hPa 0,0 mm 8,0 km/h (2 Bft) N-NW 337 5 min 6,7 C 11,9 km/h (2 Bft)
09.05.2016 16:10 21,5 C 25,1 C 38 % 1014,3 hPa 0,0 mm 8,3 km/h (2 Bft) N-NO 22 5 min 6,6 C 11,0 km/h (2 Bft)
09.05.2016 16:15 21,3 C 24,4 C 38 % 1014,2 hPa 0,0 mm 9,2 km/h (2 Bft) O-NO 67 5 min 6,4 C 6,3 km/h (2 Bft)
09.05.2016 16:20 21,3 C 24,1 C 38 % 1014,2 hPa 0,0 mm 7,2 km/h (2 Bft) N-NO 22 5 min 6,4 C 6,0 km/h (2 Bft)
09.05.2016 16:25 21,3 C 23,9 C 38 % 1014,2 hPa 0,0 mm 4,8 km/h (1 Bft) N 360 0 min 6,4 C 6,3 km/h (2 Bft)
09.05.2016 16:30 21,2 C 23,8 C 39 % 1014,2 hPa 0,0 mm 4,8 km/h (1 Bft) NO 45 0 min 6,7 C 11,6 km/h (2 Bft)
09.05.2016 16:35 21,1 C 23,6 C 38 % 1014,3 hPa 0,0 mm 6,0 km/h (2 Bft) N-NO 22 0 min 6,2 C 14,9 km/h (3 Bft)
09.05.2016 16:40 21,0 C 23,2 C 39 % 1014,3 hPa 0,0 mm 7,2 km/h (2 Bft) NO 45 0 min 6,5 C 12,8 km/h (3 Bft)
09.05.2016 16:45 20,8 C 22,6 C 39 % 1014,3 hPa 0,0 mm 8,0 km/h (2 Bft) N-NO 22 0 min 6,3 C 13,7 km/h (3 Bft)
09.05.2016 16:50 20,7 C 22,3 C 40 % 1014,3 hPa 0,0 mm 6,6 km/h (2 Bft) O-NO 67 0 min 6,6 C 4,8 km/h (1 Bft)
09.05.2016 16:55 20,5 C 21,9 C 42 % 1014,2 hPa 0,0 mm 3,3 km/h (1 Bft) N-NO 22 0 min 7,1 C 0,0 km/h (0 Bft)
09.05.2016 17:00 20,4 C 21,9 C 43 % 1014,2 hPa 0,0 mm 2,7 km/h (1 Bft) O 90 0 min 7,4 C 6,3 km/h (2 Bft)
09.05.2016 17:05 20,2 C 21,8 C 43 % 1014,2 hPa 0,0 mm 1,8 km/h (1 Bft) O-SO 112 0 min 7,2 C 0,0 km/h (0 Bft)
09.05.2016 17:10 20,1 C 21,7 C 44 % 1014,2 hPa 0,0 mm 1,2 km/h (1 Bft) O-SO 112 0 min 7,5 C 0,0 km/h (0 Bft)
09.05.2016 17:15 20,1 C 21,8 C 45 % 1014,3 hPa 0,0 mm 0,0 km/h (0 Bft) O-NO 67 0 min 7,8 C 0,0 km/h (0 Bft)
09.05.2016 17:20 20,0 C 21,8 C 47 % 1014,3 hPa 0,0 mm 0,0 km/h (0 Bft) S 180 0 min 8,3 C 0,0 km/h (0 Bft)
09.05.2016 17:25 20,0 C 21,9 C 47 % 1014,3 hPa 0,0 mm 0,3 km/h (0 Bft) NO 45 0 min 8,3 C 0,0 km/h (0 Bft)
09.05.2016 17:30 20,2 C 22,1 C 46 % 1014,3 hPa 0,0 mm 0,6 km/h (0 Bft) O-SO 112 0 min 8,2 C 0,0 km/h (0 Bft)
09.05.2016 17:35 20,3 C 22,5 C 45 % 1014,1 hPa 0,0 mm 0,6 km/h (0 Bft) N-NO 22 0 min 8,0 C 0,0 km/h (0 Bft)
09.05.2016 17:40 20,5 C 22,7 C 45 % 1014,1 hPa 0,0 mm 0,3 km/h (0 Bft) O-SO 112 0 min 8,2 C 0,0 km/h (0 Bft)
09.05.2016 17:45 20,6 C 22,8 C 44 % 1014,1 hPa 0,0 mm 3,0 km/h (1 Bft) O-NO 67 0 min 7,9 C 4,2 km/h (1 Bft)
09.05.2016 17:50 20,6 C 22,7 C 46 % 1014,1 hPa 0,0 mm 3,0 km/h (1 Bft) NO 45 0 min 8,6 C 0,0 km/h (0 Bft)
09.05.2016 17:55 20,6 C 22,8 C 45 % 1014,0 hPa 0,0 mm 1,2 km/h (1 Bft) NO 45 0 min 8,2 C 0,0 km/h (0 Bft)
09.05.2016 18:00 20,5 C 22,7 C 45 % 1014,0 hPa 0,0 mm 0,6 km/h (0 Bft) O-SO 112 0 min 8,2 C 0,0 km/h (0 Bft)
09.05.2016 18:05 20,2 C 22,4 C 46 % 1014,0 hPa 0,0 mm 0,0 km/h (0 Bft) O-NO 67 0 min 8,2 C 0,0 km/h (0 Bft)
09.05.2016 18:10 20,1 C 22,2 C 46 % 1014,0 hPa 0,0 mm 0,0 km/h (0 Bft) O-NO 67 0 min 8,1 C 0,0 km/h (0 Bft)
09.05.2016 18:15 20,0 C 21,9 C 45 % 1014,1 hPa 0,0 mm 0,6 km/h (0 Bft) NO 45 0 min 7,7 C 3,9 km/h (1 Bft)
09.05.2016 18:20 20,0 C 21,7 C 45 % 1014,1 hPa 0,0 mm 0,9 km/h (0 Bft) O-SO 112 0 min 7,7 C 0,0 km/h (0 Bft)
09.05.2016 18:25 20,0 C 21,5 C 45 % 1014,1 hPa 0,0 mm 0,9 km/h (0 Bft) O-NO 67 0 min 7,7 C 0,0 km/h (0 Bft)
09.05.2016 18:30 20,0 C 21,4 C 47 % 1014,1 hPa 0,0 mm 0,3 km/h (0 Bft) S-SO 157 0 min 8,3 C 0,0 km/h (0 Bft)
09.05.2016 18:35 19,7 C 21,2 C 47 % 1013,9 hPa 0,0 mm 0,0 km/h (0 Bft) NO 45 0 min 8,1 C 0,0 km/h (0 Bft)
09.05.2016 18:40 19,7 C 21,1 C 47 % 1013,9 hPa 0,0 mm 0,0 km/h (0 Bft) O-SO 112 0 min 8,1 C 0,0 km/h (0 Bft)
09.05.2016 18:42 19,6 C 20,9 C 46 % 1013,9 hPa 0,0 mm 0,0 km/h (0 Bft) O-NO 67 0 min 7,7 C 0,0 km/h (0 Bft)
09.05.2016 18:46 19,6 C 20,9 C 46 % 1013,9 hPa 0,0 mm 0,0 km/h (0 Bft) O-NO 67 0 min 7,7 C 0,0 km/h (0 Bft)
09.05.2016 18:50 19,5 C 20,8 C 46 % 1013,9 hPa 0,0 mm 0,0 km/h (0 Bft) S-SW 202 0 min 7,6 C 0,0 km/h (0 Bft)
09.05.2016 18:55 19,4 C 20,8 C 48 % 1013,8 hPa 0,0 mm 0,0 km/h (0 Bft) O-NO 67 0 min 8,1 C 0,0 km/h (0 Bft)
09.05.2016 19:00 19,3 C 20,7 C 47 % 1013,8 hPa 0,0 mm 0,6 km/h (0 Bft) N 360 0 min 7,7 C 3,9 km/h (1 Bft)
09.05.2016 19:05 19,3 C 20,4 C 47 % 1013,8 hPa 0,0 mm 1,2 km/h (1 Bft) O-NO 67 0 min 7,7 C 0,0 km/h (0 Bft)
09.05.2016 19:10 19,1 C 20,2 C 47 % 1013,8 hPa 0,0 mm 0,9 km/h (0 Bft) O-NO 67 0 min 7,5 C 0,0 km/h (0 Bft)
09.05.2016 19:15 19,0 C 19,8 C 48 % 1013,7 hPa 0,0 mm 0,3 km/h (0 Bft) SO 135 0 min 7,7 C 0,0 km/h (0 Bft)
09.05.2016 19:20 18,9 C 19,6 C 48 % 1013,7 hPa 0,0 mm 0,3 km/h (0 Bft) SO 135 0 min 7,6 C 0,0 km/h (0 Bft)
09.05.2016 19:25 18,8 C 19,7 C 49 % 1013,7 hPa 0,0 mm 0,6 km/h (0 Bft) O-SO 112 0 min 7,9 C 0,0 km/h (0 Bft)
09.05.2016 19:30 18,8 C 20,1 C 49 % 1013,7 hPa 0,0 mm 0,3 km/h (0 Bft) O-SO 112 0 min 7,9 C 0,0 km/h (0 Bft)
09.05.2016 19:35 18,9 C 21,2 C 49 % 1013,6 hPa 0,0 mm 0,0 km/h (0 Bft) N-NO 22 5 min 7,9 C 4,5 km/h (1 Bft)
09.05.2016 19:40 19,1 C 22,1 C 49 % 1013,6 hPa 0,0 mm 0,3 km/h (0 Bft) O-NO 67 5 min 8,1 C 0,0 km/h (0 Bft)
09.05.2016 19:45 18,9 C 22,7 C 49 % 1013,6 hPa 0,0 mm 0,3 km/h (0 Bft) O-SO 112 5 min 7,9 C 0,0 km/h (0 Bft)
09.05.2016 19:50 18,5 C 21,9 C 50 % 1013,6 hPa 0,0 mm 0,0 km/h (0 Bft) O-NO 67 5 min 7,9 C 0,0 km/h (0 Bft)
09.05.2016 19:55 18,1 C 20,6 C 50 % 1013,6 hPa 0,0 mm 0,0 km/h (0 Bft) O-SO 112 5 min 7,5 C 0,0 km/h (0 Bft)
09.05.2016 20:00 17,7 C 19,6 C 50 % 1013,6 hPa 0,0 mm 0,6 km/h (0 Bft) S 180 0 min 7,1 C 0,0 km/h (0 Bft)
09.05.2016 20:05 17,4 C 18,4 C 50 % 1013,6 hPa 0,0 mm 1,5 km/h (1 Bft) SO 135 0 min 6,9 C 0,0 km/h (0 Bft)
09.05.2016 20:10 17,1 C 17,8 C 50 % 1013,6 hPa 0,0 mm 1,2 km/h (1 Bft) NO 45 0 min 6,6 C 6,0 km/h (2 Bft)
09.05.2016 20:15 16,7 C 17,2 C 52 % 1014,0 hPa 0,0 mm 1,5 km/h (1 Bft) S-SO 157 0 min 6,8 C 0,0 km/h (0 Bft)
09.05.2016 20:20 16,6 C 17,0 C 52 % 1014,0 hPa 0,0 mm 1,2 km/h (1 Bft) SO 135 0 min 6,7 C 0,0 km/h (0 Bft)
09.05.2016 20:25 16,5 C 16,9 C 53 % 1014,0 hPa 0,0 mm 0,0 km/h (0 Bft) S 180 0 min 6,9 C 0,0 km/h (0 Bft)
09.05.2016 20:30 16,3 C 16,8 C 53 % 1014,0 hPa 0,0 mm 0,0 km/h (0 Bft) SO 135 0 min 6,7 C 0,0 km/h (0 Bft)
09.05.2016 20:35 16,1 C 16,4 C 53 % 1013,6 hPa 0,0 mm 0,0 km/h (0 Bft) SO 135 0 min 6,5 C 0,0 km/h (0 Bft)
09.05.2016 20:40 16,1 C 16,2 C 53 % 1013,6 hPa 0,0 mm 0,3 km/h (0 Bft) O-SO 112 0 min 6,5 C 3,0 km/h (1 Bft)
09.05.2016 20:45 16,1 C 16,0 C 53 % 1013,6 hPa 0,0 mm 0,3 km/h (0 Bft) O-SO 112 0 min 6,5 C 0,0 km/h (0 Bft)
09.05.2016 20:50 16,1 C 16,0 C 54 % 1013,6 hPa 0,0 mm 0,3 km/h (0 Bft) S-SO 157 0 min 6,8 C 0,0 km/h (0 Bft)
09.05.2016 20:55 15,4 C 15,6 C 57 % 1013,7 hPa 0,0 mm 0,3 km/h (0 Bft) O-NO 67 0 min 6,9 C 0,0 km/h (0 Bft)
09.05.2016 21:00 15,5 C 15,5 C 57 % 1013,7 hPa 0,0 mm 0,0 km/h (0 Bft) S-SO 157 0 min 7,0 C 0,0 km/h (0 Bft)
09.05.2016 21:05 14,5 C 15,0 C 58 % 1013,7 hPa 0,0 mm 0,3 km/h (0 Bft) NO 45 0 min 6,3 C 0,0 km/h (0 Bft)
09.05.2016 21:10 14,1 C 14,6 C 58 % 1013,7 hPa 0,0 mm 0,0 km/h (0 Bft) O-NO 67 0 min 6,0 C 0,0 km/h (0 Bft)
09.05.2016 21:15 13,9 C 13,9 C 59 % 1014,5 hPa 0,0 mm 0,0 km/h (0 Bft) O-NO 67 0 min 6,0 C 0,0 km/h (0 Bft)
09.05.2016 21:20 13,7 C 13,9 C 59 % 1014,5 hPa 0,0 mm 0,0 km/h (0 Bft) O-SO 112 0 min 5,8 C 0,0 km/h (0 Bft)
09.05.2016 21:25 13,5 C 13,6 C 59 % 1014,5 hPa 0,0 mm 0,0 km/h (0 Bft) O-SO 112 0 min 5,6 C 0,0 km/h (0 Bft)
09.05.2016 21:30 13,3 C 13,3 C 59 % 1014,5 hPa 0,0 mm 0,0 km/h (0 Bft) O 90 0 min 5,5 C 0,0 km/h (0 Bft)
09.05.2016 21:35 13,3 C 13,2 C 59 % 1014,0 hPa 0,0 mm 0,0 km/h (0 Bft) O 90 0 min 5,5 C 0,0 km/h (0 Bft)
09.05.2016 21:40 13,3 C 13,0 C 59 % 1014,0 hPa 0,0 mm 0,0 km/h (0 Bft) O 90 0 min 5,5 C 0,0 km/h (0 Bft)
09.05.2016 21:45 13,2 C 13,0 C 59 % 1014,0 hPa 0,0 mm 0,0 km/h (0 Bft) O 90 0 min 5,4 C 0,0 km/h (0 Bft)
09.05.2016 21:47 13,2 C 13,0 C 59 % 1014,0 hPa 0,0 mm 0,0 km/h (0 Bft) O 90 0 min 5,4 C 0,0 km/h (0 Bft)
09.05.2016 21:50 12,7 C 12,5 C 58 % 1014,0 hPa 0,0 mm 0,0 km/h (0 Bft) O-SO 112 0 min 4,7 C 0,0 km/h (0 Bft)
09.05.2016 21:55 12,5 C 12,2 C 59 % 1014,0 hPa 0,0 mm 0,0 km/h (0 Bft) O-SO 112 0 min 4,7 C 0,0 km/h (0 Bft)
09.05.2016 22:00 12,5 C 12,1 C 59 % 1014,0 hPa 0,0 mm 0,0 km/h (0 Bft) O-SO 112 0 min 4,7 C 0,0 km/h (0 Bft)
09.05.2016 22:05 12,4 C 12,1 C 59 % 1014,0 hPa 0,0 mm 0,0 km/h (0 Bft) O-NO 67 0 min 4,6 C 0,0 km/h (0 Bft)
09.05.2016 22:10 11,9 C 11,7 C 59 % 1014,0 hPa 0,0 mm 0,0 km/h (0 Bft) N 360 0 min 4,1 C 0,0 km/h (0 Bft)
09.05.2016 22:15 11,4 C 11,2 C 61 % 1014,2 hPa 0,0 mm 0,0 km/h (0 Bft) N-NO 22 0 min 4,2 C 0,0 km/h (0 Bft)
09.05.2016 22:20 11,6 C 11,3 C 63 % 1014,2 hPa 0,0 mm 0,0 km/h (0 Bft) N-NO 22 0 min 4,8 C 0,0 km/h (0 Bft)
09.05.2016 22:25 11,3 C 11,0 C 63 % 1014,2 hPa 0,0 mm 0,0 km/h (0 Bft) N-NO 22 0 min 4,5 C 0,0 km/h (0 Bft)
09.05.2016 22:30 11,3 C 11,0 C 63 % 1014,2 hPa 0,0 mm 0,0 km/h (0 Bft) O-NO 67 0 min 4,5 C 0,0 km/h (0 Bft)
09.05.2016 22:35 11,1 C 10,9 C 63 % 1014,1 hPa 0,0 mm 0,0 km/h (0 Bft) NO 45 0 min 4,3 C 0,0 km/h (0 Bft)
09.05.2016 22:40 11,2 C 11,0 C 63 % 1014,1 hPa 0,0 mm 0,0 km/h (0 Bft) O-NO 67 0 min 4,4 C 0,0 km/h (0 Bft)
09.05.2016 22:45 11,9 C 11,5 C 63 % 1014,1 hPa 0,0 mm 0,0 km/h (0 Bft) O-NO 67 0 min 5,1 C 0,0 km/h (0 Bft)
09.05.2016 22:50 11,9 C 11,6 C 61 % 1014,1 hPa 0,0 mm 0,0 km/h (0 Bft) O-SO 112 0 min 4,6 C 0,0 km/h (0 Bft)
09.05.2016 22:55 12,6 C 12,1 C 59 % 1014,1 hPa 0,0 mm 0,0 km/h (0 Bft) O-SO 112 0 min 4,8 C 0,0 km/h (0 Bft)
09.05.2016 23:00 12,2 C 11,8 C 59 % 1014,1 hPa 0,0 mm 0,0 km/h (0 Bft) O-SO 112 0 min 4,4 C 0,0 km/h (0 Bft)
09.05.2016 23:05 11,3 C 11,2 C 59 % 1014,1 hPa 0,0 mm 0,0 km/h (0 Bft) O-NO 67 0 min 3,6 C 0,0 km/h (0 Bft)
09.05.2016 23:10 11,0 C 11,0 C 59 % 1014,1 hPa 0,0 mm 0,0 km/h (0 Bft) O-NO 67 0 min 3,3 C 0,0 km/h (0 Bft)
09.05.2016 23:15 11,1 C 11,0 C 60 % 1013,8 hPa 0,0 mm 0,0 km/h (0 Bft) O-SO 112 0 min 3,6 C 0,0 km/h (0 Bft)
09.05.2016 23:20 10,9 C 10,8 C 60 % 1013,8 hPa 0,0 mm 0,0 km/h (0 Bft) N-NW 337 0 min 3,4 C 0,0 km/h (0 Bft)
09.05.2016 23:25 10,2 C 10,3 C 62 % 1013,8 hPa 0,0 mm 0,0 km/h (0 Bft) NW 315 0 min 3,3 C 0,0 km/h (0 Bft)
09.05.2016 23:30 10,3 C 10,2 C 63 % 1013,8 hPa 0,0 mm 0,0 km/h (0 Bft) W-SW 247 0 min 3,6 C 0,0 km/h (0 Bft)
09.05.2016 23:35 10,4 C 10,2 C 63 % 1013,6 hPa 0,0 mm 0,0 km/h (0 Bft) NW 315 0 min 3,7 C 0,0 km/h (0 Bft)
09.05.2016 23:40 10,5 C 10,2 C 65 % 1013,6 hPa 0,0 mm 0,0 km/h (0 Bft) O-NO 67 0 min 4,2 C 0,0 km/h (0 Bft)
09.05.2016 23:45 10,0 C 9,9 C 64 % 1013,6 hPa 0,0 mm 0,0 km/h (0 Bft) W 270 0 min 3,5 C 0,0 km/h (0 Bft)
09.05.2016 23:50 10,3 C 10,0 C 65 % 1013,6 hPa 0,0 mm 0,0 km/h (0 Bft) O-NO 67 0 min 4,0 C 0,0 km/h (0 Bft)
09.05.2016 23:55 9,9 C 9,8 C 67 % 1013,6 hPa 0,0 mm 1,2 km/h (1 Bft) O-NO 67 0 min 4,1 C 3,9 km/h (1 Bft)
_ Min-Zeit 03:35 03:35 14:30 07:50 - 23:50 - - - 03:35 23:50
Minimum _ 5,1 C 5,0 C 37 % 1010,9 hPa - 0,0 km/h (0 Bft) - - - 1,2 C 0,0 km/h (0 Bft)
_ Max-Zeit 11:10 11:20 05:55 12:10 23:55 15:25 - - 19:55 08:55 12:50
Maximum _ 22,2 C 28,5 C 82 % 1014,9 hPa 0,0 mm 12,5 km/h
N-NW (3 Bft)
- - 5 min 10,1 C 25,9 km/h
O-NO (4 Bft)
Durchschnitt _ 14,7 C 16,9 C 57 % 1013,5 hPa #0,0 mm 3,0 km/h (1 Bft) O-NO - #7:05 h 5,7 C 3,8 km/h (1 Bft)